Terminal Aerodrome Forecast
Issued by NWS

Home | Current Version | Previous Version | Text Only | Print | Product List | Glossary On
Versions: 1 2 3 4 5 6 7 8 9 10 11 12 13 14 15 16 17 18 19 20 21 22 23 24
000
FTUS44 KOUN 031731
TAFPNC
TAF
KPNC 031731Z 0318/0418 18006KT P6SM FEW070 BKN120
      TEMPO 0406/0409 -SHRA FEW040 BKN100
     FM040900 16007KT 6SM -TSRA FEW030 OVC080CB=

USA.gov is the U.S. government's official web portal to all federal, state and local government web resources and services.